Flag for Germany Weather past 2 weeks in Weimar, Thuringia, Germany

Now
36 °F

Clear.


Feels Like: 27 °F
Forecast: 37 / 50 °F
Wind: 14 mph from West

Location: Erfurt-Bindersleben

Current Time: Mar 30, 2015 at 10:09:00 PM

Latest Report: Mar 30, 2015 at 9:20 PM


Visibility: 10 mi

Pressure: 29.77 "Hg

Humidity: 87%

Dew point: 32 °F

Location of WeimarLocation

Historic Weather in Weimar — Graph

°F

Weimar temperature yesterday

Maximum temperature yesterday: 52 °F (at 9:50 AM)
Minimum temperature yesterday: 43 °F (at 11:20 PM)
Average temperature yesterday: 48 °F

Past Weeks' High & Low Weather Summary

 TemperatureHumidityPressure
High63 °F (Mar 25, 3:50 PM)100% (Mar 15, 9:20 PM)30.33 "Hg (Mar 15, 9:20 PM)
Low27 °F (Mar 20, 5:50 AM)30% (Mar 20, 2:50 PM)29.21 "Hg (Mar 29, 10:50 PM)
Average42 °F78%29.99 "Hg
* Reported Mar 15 7:20 PM — Mar 30 8:50 PM, Weimar, Weather by CustomWeather, © 2015

Note: Actual official high and low records may vary slightly from our data, if they occured in-between our weather recording intervals... More about our weather records

Advertising

Weimar weather history for previous 24 hours

 ConditionsComfort  
Time TempWeatherWind HumidityBarometerVisibility
8:50 PM
Mon, Mar 30
36 °FClear.14 mph87%29.77 "Hg10 mi
8:20 PM37 °FPassing clouds.15 mph81%29.77 "HgN/A
7:50 PM37 °FScattered clouds.14 mph81%29.74 "HgN/A
7:20 PM37 °FScattered clouds.15 mph87%29.74 "HgN/A
6:50 PM36 °FSnow flurries. Broken clouds.24 mph93%29.71 "HgN/A
6:20 PM39 °FSprinkles. Broken clouds.18 mph81%29.71 "HgN/A
5:50 PM39 °FScattered clouds.25 mph75%29.68 "HgN/A
5:20 PM39 °FSprinkles. Scattered clouds.26 mph75%29.65 "HgN/A
4:50 PM43 °FScattered clouds.26 mph66%29.62 "HgN/A
4:20 PM43 °FScattered clouds.24 mph71%29.62 "HgN/A
3:50 PM39 °FScattered showers. Scattered clouds.29 mph93%29.59 "HgN/A
3:20 PM36 °FSleet. Partly sunny.32 mph93%29.59 "HgN/A
2:50 PM46 °FScattered clouds.32 mph57%29.56 "HgN/A
2:20 PM45 °FScattered clouds.29 mph66%29.56 "HgN/A
1:50 PM41 °FPassing clouds.26 mph87%29.53 "HgN/A
1:20 PM43 °FScattered clouds.29 mph71%29.53 "HgN/A
12:50 PM43 °FSprinkles. Passing clouds.26 mph71%29.50 "HgN/A
12:20 PM41 °FPassing clouds.21 mph81%29.50 "HgN/A
11:50 AM37 °FSprinkles. Partly sunny.29 mph81%29.50 "HgN/A
11:20 AM45 °FScattered showers. Scattered clouds.30 mph53%29.47 "HgN/A
10:50 AM43 °FScattered clouds.24 mph61%29.45 "HgN/A
10:20 AM43 °FScattered clouds.23 mph71%29.45 "HgN/A
9:50 AM43 °FScattered clouds.26 mph71%29.42 "HgN/A
9:20 AM41 °FPassing clouds.28 mph76%29.42 "HgN/A
8:50 AM41 °FPassing clouds.26 mph76%29.39 "HgN/A
8:20 AM39 °FPassing clouds.26 mph81%29.39 "HgN/A
7:50 AM39 °FPassing clouds.24 mph81%29.39 "HgN/A
7:20 AM39 °FPassing clouds.26 mph81%29.36 "HgN/A
6:50 AM39 °FPassing clouds.21 mph87%29.36 "HgN/A
6:20 AM39 °FSprinkles. Passing clouds.24 mph93%29.36 "HgN/A
5:50 AM41 °FLight rain. Partly cloudy.18 mph81%29.33 "HgN/A
5:20 AM41 °FLight rain. Passing clouds.21 mph81%29.33 "HgN/A
4:50 AM41 °FPassing clouds.18 mph81%29.33 "HgN/A
4:20 AM43 °FPassing clouds.18 mph76%29.33 "HgN/A
3:50 AM43 °FPartly cloudy.17 mph81%29.33 "HgN/A
3:20 AM43 °FPartly cloudy.20 mph76%29.36 "HgN/A
2:50 AM43 °FPartly cloudy.21 mph76%29.36 "HgN/A
2:20 AM43 °FPartly cloudy.22 mph81%29.33 "HgN/A
1:50 AM45 °FPassing clouds.24 mph76%29.30 "HgN/A
1:20 AM45 °FPassing clouds.25 mph76%29.30 "HgN/A
12:50 AM45 °FPassing clouds.24 mph81%29.27 "HgN/A
12:20 AM45 °FPassing clouds.22 mph81%29.27 "HgN/A
11:50 PM
Sun, Mar 29
45 °FLight rain. Clear.26 mph81%29.27 "HgN/A
11:20 PM43 °FSprinkles. Partly cloudy.36 mph93%29.27 "HgN/A
10:50 PM48 °FSprinkles. Passing clouds.28 mph87%29.21 "HgN/A
10:20 PM48 °FLight rain. Mostly cloudy.23 mph94%29.24 "HgN/A
Weather by CustomWeather, © 2015

See weather overviewHow to use our weather pages